User: anonymous   Login
Location: Caltech
(34.1382°N, 118.1253°W)
Time: 06:30:10
(UTC-07:00)
Language:

JAS-2 - Orbit

View from above orbital plane
View from above orbital plane
View from above satellite
View from above satellite

Ground track
Ground track

The orbit data is extracted from the following two-line orbital elements,

1 24278U 96046B   14296.07305610  .00000033  00000-0  71774-4 0  5006
2 24278 098.5161 292.2871 0349741 325.9542 070.6562 13.53033144897966
Epoch (UTC): 23 October 2014 01:45:12
Eccentricity: 0.0349741
inclination: 98.5161°
perigee height: 801 km
apogee height: 1321 km
right ascension of ascending node: 292.2871°
argument of perigee: 325.9542°
revolutions per day: 13.53033144
mean anomaly at epoch: 70.6562°
orbit number at epoch: 89796

The dashed part of the orbit path shows where the satellite is in the earth's shadow,  

DLR